Location: Arborea
(39.7744°N, 8.5819°E)
Time: 03:59:25
(UTC+00:00)

Cosmos 1328 - Pass Details

Date: 24 October 2021
Orbit: 529 x 551 km, 82.5° (Epoch: 27 November)

Event Time Altitude Azimuth Distance (km) Brightness Sun altitude
Rises 17:20:18 0° 354° (N) 2,732 7.4 -9.6°
Reaches altitude 10° 17:22:29 10° 357° (N) 1,835 6.4 -10.1°
Maximum altitude 17:26:30 71° 81° (E) 586 3.7 -10.8°
Drops below altitude 10° 17:30:31 10° 167° (SSE) 1,821 6.4 -11.6°
Sets 17:32:40 0° 169° (S) 2,709 7.3 -12.0°
